Weather History for Andrews, NC

Change the Weather History Date:

Sunday, March 24, 2013

  Actual Average (KTYS) Record (KTYS)
Temperature  
Mean Temperature 48 °F 52 °F  
Max Temperature 57 °F 64 °F 86 °F (1929)
Min Temperature 39 °F 41 °F 18 °F (1885)
Degree Days  
Heating Degree Days 17 13  
Month to date heating degree days 379  
Since 1 July heating degree days 3275  
Cooling Degree Days 0 0  
Month to date cooling degree days 0  
Year to date cooling degree days 0  
Moisture  
Dew Point 46 °F    
Average Humidity 88    
Maximum Humidity 99    
Minimum Humidity 68    
Precipitation  
Precipitation 0.24 in 0.14 in 2.01 in (1936)
Month to date precipitation 3.31  
Year to date precipitation 11.89  
Snow  
Snow 0.00 in 0.00 in - ()
Month to date snowfall 0.7  
Since 1 July snowfall 5.8  
Snow Depth -    
Sea Level Pressure  
Sea Level Pressure 29.60 in    
Wind  
Wind Speed 4 mph (WSW)    
Max Wind Speed 20 mph    
Max Gust Speed 32 mph    
Visibility 8 miles    
Events Rain    
T = Trace of Precipitation, MM = Missing Value Source: NWS Daily Summary

Daily Weather History Graph

Daily Weather History Graph

Search for Another Location

Airport:

Trip Planner

Search our weather history database for the weather conditions in past years. The results will help you decide how hot, cold, wet, or windy it might be!

Date:

Astronomy

Mar. 24, 2013 Rise Set
Actual Time 7:33 AM EDT 7:50 PM EDT
Civil Twilight 7:07 AM EDT 8:16 PM EDT
Nautical Twilight 6:38 AM EDT 8:45 PM EDT
Astronomical Twilight 6:07 AM EDT 9:15 PM EDT
Moon 5:22 PM EDT (3/24) 5:37 AM EDT (3/24)
Length of Visible Light 13h 08m
Length of Day
12h 17m
Waxing Gibbous, 91% of the Moon is Illuminated
Mar 24
Waxing Gibbous
Mar 27
Full
Apr 3
Last Quarter
Apr 10
New
Apr 18
First Quarter

Hourly Weather History & Observations

Time (EDT) Temp. Windchill Dew Point Humidity Pressure Visibility Wind Dir Wind Speed Gust Speed Precip Events Conditions
12:15 AM 47.1 °F - 45.1 °F 93% 29.77 in 10.0 mi East 3.5 mph - N/A   Overcast
12:35 AM 46.8 °F - 45.1 °F 94% 29.80 in 10.0 mi NNW 3.5 mph - N/A   Overcast
12:55 AM 48.0 °F - 46.0 °F 93% 29.85 in 10.0 mi Calm Calm - N/A Rain Light Rain
1:15 AM 48.4 °F - 46.4 °F 93% 29.85 in 7.0 mi Calm Calm - N/A Rain Rain
1:35 AM 47.3 °F - 46.4 °F 97% 29.84 in 5.0 mi East 4.6 mph - 0.04 in Rain Heavy Rain
1:55 AM 47.5 °F - 46.6 °F 97% 29.83 in 5.0 mi Calm Calm - 0.04 in Rain Rain
2:15 AM 47.1 °F - 46.6 °F 98% 29.80 in 4.0 mi Calm Calm - N/A Rain Rain
2:35 AM 46.9 °F - 46.6 °F 99% 29.77 in 4.0 mi Calm Calm - 0.02 in Rain Light Rain
2:55 AM 47.3 °F - 46.4 °F 97% 29.75 in 7.0 mi West 3.5 mph - 0.03 in Rain Light Rain
3:15 AM 46.8 °F - 46.4 °F 99% 29.75 in 5.0 mi West 3.5 mph - 0.02 in Rain Light Rain
3:35 AM 46.8 °F - 46.4 °F 99% 29.74 in 4.0 mi Calm Calm - 0.04 in Rain Rain
3:55 AM 47.1 °F - 46.4 °F 97% 29.74 in 7.0 mi West 4.6 mph - 0.07 in Rain Rain
4:15 AM 46.9 °F - 45.9 °F 96% 29.70 in 7.0 mi NW 3.5 mph - N/A Rain Rain
4:35 AM 46.4 °F 45.2 °F 45.9 °F 98% 29.65 in 5.0 mi ENE 3.5 mph - N/A Rain Rain
4:55 AM 46.4 °F - 45.9 °F 98% 29.65 in 7.0 mi Calm Calm - N/A Rain Light Rain
5:15 AM 46.4 °F 43.5 °F 46.0 °F 99% 29.62 in 4.0 mi East 5.8 mph - N/A Rain Light Rain
5:35 AM 46.8 °F - 46.4 °F 99% 29.62 in 4.0 mi ENE 3.5 mph - N/A Rain Rain
5:55 AM 47.5 °F - 46.6 °F 97% 29.58 in 7.0 mi Calm Calm - 0.02 in Rain Light Rain
6:15 AM 47.5 °F - 46.4 °F 96% 29.64 in 7.0 mi West 4.6 mph - 0.01 in Rain Rain
6:35 AM 47.5 °F - 46.6 °F 97% 29.67 in 4.0 mi WSW 3.5 mph - 0.05 in Rain Rain
6:55 AM 47.3 °F - 46.9 °F 99% 29.70 in 2.5 mi Calm Calm - 0.07 in Rain Heavy Rain
7:15 AM 47.3 °F - 46.8 °F 98% 29.63 in 5.0 mi ENE 10.4 mph - N/A Rain Light Rain
7:35 AM 47.8 °F - 45.9 °F 93% 29.61 in 10.0 mi Calm Calm - N/A Rain Light Rain
8:15 AM 46.9 °F - 46.4 °F 98% 29.62 in 10.0 mi Calm Calm - N/A   Overcast
8:35 AM 47.5 °F - 46.4 °F 96% 29.62 in 7.0 mi Calm Calm - N/A   Heavy Drizzle
8:55 AM 47.5 °F - 46.8 °F 97% 29.62 in 3.0 mi Calm Calm - N/A   Drizzle
9:15 AM 47.5 °F - 46.9 °F 98% 29.62 in 4.0 mi NNE 3.5 mph - N/A   Drizzle
9:35 AM 48.2 °F - 47.1 °F 96% 29.62 in 4.0 mi NE 3.5 mph - N/A   Drizzle
9:55 AM 48.7 °F - 47.7 °F 96% 29.62 in 3.0 mi Calm Calm - N/A   Drizzle
10:15 AM 49.1 °F - 47.7 °F 95% 29.62 in 4.0 mi Calm Calm - N/A   Light Drizzle
10:35 AM 49.1 °F - 47.7 °F 95% 29.62 in 2.5 mi Calm Calm - N/A   Drizzle
10:55 AM 49.5 °F - 48.0 °F 95% 29.62 in 2.5 mi Calm Calm - 0.01 in   Drizzle
11:15 AM 50.0 °F - 48.7 °F 95% 29.61 in 3.0 mi Calm Calm - N/A   Drizzle
11:35 AM 51.3 °F - 49.8 °F 95% 29.62 in 4.0 mi West 3.5 mph - N/A   Light Drizzle
11:55 AM 52.2 °F - 50.0 °F 92% 29.61 in 5.0 mi WSW 4.6 mph - N/A   Overcast
12:15 PM 53.8 °F - 51.4 °F 92% 29.60 in 5.0 mi West 4.6 mph - N/A   Overcast
12:35 PM 53.6 °F - 50.2 °F 88% 29.59 in 10.0 mi WSW 6.9 mph - N/A   Overcast
12:55 PM 54.0 °F - 50.4 °F 88% 29.57 in 10.0 mi West 4.6 mph - N/A   Overcast
1:15 PM 55.6 °F - 51.1 °F 85% 29.55 in 10.0 mi West 5.8 mph - N/A   Overcast
1:35 PM 55.4 °F - 50.5 °F 84% 29.54 in 10.0 mi WSW 6.9 mph - N/A   Overcast
1:55 PM 55.6 °F - 50.0 °F 81% 29.53 in 10.0 mi WSW 6.9 mph - N/A   Overcast
2:15 PM 57.7 °F - 51.1 °F 78% 29.52 in 10.0 mi WSW 8.1 mph - N/A   Overcast
2:35 PM 57.2 °F - 50.5 °F 78% 29.52 in 10.0 mi WSW 11.5 mph - N/A   Overcast
2:55 PM 56.3 °F - 49.1 °F 77% 29.50 in 10.0 mi West 4.6 mph - N/A   Overcast
3:15 PM 56.8 °F - 47.3 °F 70% 29.48 in 10.0 mi South 8.1 mph - N/A   Overcast
3:35 PM 57.6 °F - 47.7 °F 70% 29.48 in 10.0 mi WSW 15.0 mph - N/A   Overcast
3:55 PM 55.4 °F - 46.8 °F 73% 29.48 in 10.0 mi WSW 12.7 mph 19.6 mph N/A   Overcast
4:15 PM 54.7 °F - 46.2 °F 73% 29.49 in 10.0 mi SW 10.4 mph - N/A   Overcast
4:35 PM 54.5 °F - 46.4 °F 74% 29.49 in 10.0 mi SW 12.7 mph 18.4 mph N/A   Overcast
4:55 PM 53.6 °F - 46.0 °F 76% 29.48 in 10.0 mi WSW 9.2 mph - N/A   Overcast
5:15 PM 53.6 °F - 45.9 °F 75% 29.47 in 10.0 mi South 5.8 mph - N/A   Overcast
5:35 PM 52.7 °F - 45.5 °F 76% 29.48 in 10.0 mi SSW 5.8 mph - N/A   Overcast
5:55 PM 51.8 °F - 45.0 °F 77% 29.47 in 10.0 mi South 3.5 mph - N/A   Overcast
6:15 PM 51.4 °F - 44.4 °F 77% 29.47 in 10.0 mi South 5.8 mph - N/A   Overcast
6:35 PM 50.9 °F - 44.6 °F 79% 29.47 in 10.0 mi West 9.2 mph - N/A   Overcast
6:55 PM 50.9 °F - 44.1 °F 77% 29.46 in 10.0 mi SSW 5.8 mph - N/A Rain Rain
7:15 PM 48.7 °F - 45.1 °F 87% 29.46 in 7.0 mi Calm Calm - N/A Rain Light Rain
7:35 PM 48.4 °F - 45.3 °F 89% 29.48 in 7.0 mi WNW 13.8 mph 20.7 mph N/A Rain Rain
7:55 PM 47.5 °F - 45.5 °F 93% 29.49 in 10.0 mi West 12.7 mph - N/A Rain Light Rain
8:15 PM 47.5 °F - 45.9 °F 94% 29.51 in 10.0 mi West 11.5 mph - N/A Rain Rain
8:35 PM 47.3 °F - 45.9 °F 95% 29.53 in 7.0 mi WSW 13.8 mph - N/A Rain Rain
8:55 PM 47.5 °F - 43.5 °F 86% 29.53 in 10.0 mi WSW 15.0 mph 20.7 mph N/A Rain Light Rain
9:15 PM 46.4 °F 40.7 °F 40.1 °F 79% 29.55 in 10.0 mi WSW 12.7 mph 20.7 mph N/A   Mostly Cloudy
9:35 PM 45.9 °F 42.9 °F 39.2 °F 78% 29.55 in 10.0 mi SSW 5.8 mph - N/A   Mostly Cloudy
9:55 PM 44.8 °F - 40.5 °F 85% 29.55 in 10.0 mi Calm Calm - N/A   Overcast
10:15 PM 44.6 °F 41.4 °F 39.4 °F 82% 29.55 in 10.0 mi WSW 5.8 mph - N/A   Overcast
10:35 PM 43.7 °F 35.4 °F 37.9 °F 80% 29.57 in 5.0 mi West 19.6 mph 31.1 mph N/A Rain Rain
10:55 PM 43.0 °F 35.4 °F 36.5 °F 78% 29.58 in 10.0 mi West 16.1 mph 29.9 mph N/A   Overcast
11:15 PM 41.4 °F 32.4 °F 33.8 °F 74% 29.61 in 10.0 mi West 19.6 mph 32.2 mph N/A   Overcast
11:35 PM 39.6 °F 31.7 °F 30.2 °F 69% 29.63 in 10.0 mi WSW 13.8 mph 26.5 mph N/A   Overcast
11:55 PM 39.2 °F 30.2 °F 29.5 °F 68% 29.63 in 10.0 mi West 17.3 mph 24.2 mph N/A   Overcast